Time,TemperatureF,DewpointF,PressureIn,WindDirection,WindDirectionDegrees,WindSpeedMPH,WindSpeedGustMPH,Humidity,HourlyPrecipIn,Conditions,Clouds,dailyrainin,SoftwareType,DateUTC
2013-03-17 00:03:00,7.0,3.0,29.94,North,0,0.0,-999.0,84,-99.99,,,-99.99,,2013-03-17 04:03:00,
2013-03-17 00:13:00,7.0,3.0,29.93,North,0,0.0,-999.0,84,-99.99,,,-99.99,,2013-03-17 04:13:00,
2013-03-17 00:23:00,5.0,3.0,29.93,North,0,0.0,-999.0,92,-99.99,,,-99.99,,2013-03-17 04:23:00,
2013-03-17 00:32:00,5.0,3.0,29.93,North,0,0.0,-999.0,92,-99.99,,,-99.99,,2013-03-17 04:32:00,
2013-03-17 00:43:00,5.0,3.0,29.93,North,0,0.0,-999.0,92,-99.99,,,-99.99,,2013-03-17 04:43:00,
2013-03-17 00:53:00,3.0,3.0,29.93,North,0,0.0,-999.0,100,-99.99,,,-99.99,,2013-03-17 04:53:00,
2013-03-17 01:03:00,3.0,3.0,29.93,North,0,0.0,-999.0,100,-99.99,,,-99.99,,2013-03-17 05:03:00,
2013-03-17 01:12:00,3.0,1.0,29.93,SSW,200,3.0,-999.0,91,-99.99,,,-99.99,,2013-03-17 05:12:00,
2013-03-17 01:22:00,5.0,3.0,29.93,North,0,0.0,-999.0,92,-99.99,,,-99.99,,2013-03-17 05:22:00,
2013-03-17 01:32:00,3.0,3.0,29.93,North,0,0.0,-999.0,100,-99.99,,,-99.99,,2013-03-17 05:32:00,
2013-03-17 01:42:00,5.0,3.0,29.93,North,0,0.0,-999.0,92,-99.99,,,-99.99,,2013-03-17 05:42:00,
2013-03-17 01:52:00,5.0,3.0,29.93,SSW,200,3.0,-999.0,92,-99.99,,,-99.99,,2013-03-17 05:52:00,
2013-03-17 02:02:00,5.0,3.0,29.93,SSW,200,3.0,-999.0,92,-99.99,,,-99.99,,2013-03-17 06:02:00,
2013-03-17 02:12:00,5.0,3.0,29.93,SSW,200,3.0,-999.0,92,-99.99,,,-99.99,,2013-03-17 06:12:00,
2013-03-17 02:22:00,5.0,1.0,29.93,North,0,0.0,-999.0,84,-99.99,,,-99.99,,2013-03-17 06:22:00,
2013-03-17 02:32:00,5.0,3.0,29.94,South,190,3.0,-999.0,92,-99.99,,,-99.99,,2013-03-17 06:32:00,
2013-03-17 02:42:00,5.0,3.0,29.94,South,190,3.0,-999.0,92,-99.99,,,-99.99,,2013-03-17 06:42:00,
2013-03-17 02:52:00,7.0,3.0,29.94,SSW,200,3.0,-999.0,84,-99.99,,,-99.99,,2013-03-17 06:52:00,
2013-03-17 03:02:00,7.0,3.0,29.94,SSW,200,3.0,-999.0,84,-99.99,,,-99.99,,2013-03-17 07:02:00,
2013-03-17 03:12:00,9.0,5.0,29.94,SSW,200,3.0,-999.0,84,-99.99,,,-99.99,,2013-03-17 07:12:00,
2013-03-17 03:22:00,9.0,3.0,29.94,South,190,5.0,-999.0,78,-99.99,,,-99.99,,2013-03-17 07:22:00,
2013-03-17 03:32:00,10.0,3.0,29.93,SSW,200,3.0,-999.0,72,-99.99,,,-99.99,,2013-03-17 07:32:00,
2013-03-17 03:42:00,10.0,3.0,29.93,SSW,200,5.0,-999.0,72,-99.99,,,-99.99,,2013-03-17 07:42:00,
2013-03-17 03:52:00,10.0,3.0,29.93,SSW,200,3.0,-999.0,72,-99.99,,,-99.99,,2013-03-17 07:52:00,
2013-03-17 04:03:00,10.0,3.0,29.93,SSW,200,3.0,-999.0,72,-99.99,,,-99.99,,2013-03-17 08:03:00,
2013-03-17 04:13:00,12.0,5.0,29.93,SW,230,5.0,-999.0,72,-99.99,,,-99.99,,2013-03-17 08:13:00,
2013-03-17 04:22:00,12.0,5.0,29.93,SW,230,5.0,-999.0,72,-99.99,,,-99.99,,2013-03-17 08:22:00,
2013-03-17 04:32:00,12.0,7.0,29.92,SW,220,5.0,-999.0,78,-99.99,,,-99.99,,2013-03-17 08:32:00,
2013-03-17 04:42:00,12.0,7.0,29.92,SW,220,6.0,-999.0,78,-99.99,,,-99.99,,2013-03-17 08:42:00,
2013-03-17 04:52:00,12.0,7.0,29.92,SW,220,6.0,-999.0,78,-99.99,,,-99.99,,2013-03-17 08:52:00,
2013-03-17 05:03:00,12.0,7.0,29.92,SW,220,6.0,-999.0,78,-99.99,,,-99.99,,2013-03-17 09:03:00,
2013-03-17 05:12:00,14.0,9.0,29.93,SW,220,6.0,-999.0,78,-99.99,,,-99.99,,2013-03-17 09:12:00,
2013-03-17 05:22:00,16.0,10.0,29.93,WSW,240,8.0,-999.0,78,-99.99,,,-99.99,,2013-03-17 09:22:00,
2013-03-17 05:32:00,18.0,10.0,29.94,WSW,250,13.0,16.0,72,-99.99,,,-99.99,,2013-03-17 09:32:00,
2013-03-17 05:43:00,18.0,10.0,29.95,West,260,12.0,-999.0,72,-99.99,,,-99.99,,2013-03-17 09:43:00,
2013-03-17 05:53:00,18.0,10.0,29.96,West,270,10.0,17.0,72,-99.99,,,-99.99,,2013-03-17 09:53:00,
2013-03-17 06:03:00,18.0,10.0,29.96,West,270,10.0,17.0,72,-99.99,,,-99.99,,2013-03-17 10:03:00,
2013-03-17 06:13:00,18.0,10.0,29.98,WNW,290,9.0,-999.0,72,-99.99,,,-99.99,,2013-03-17 10:13:00,
2013-03-17 06:23:00,16.0,10.0,29.99,WNW,300,12.0,-999.0,78,-99.99,,,-99.99,,2013-03-17 10:23:00,
2013-03-17 06:33:00,16.0,9.0,30.01,NW,310,10.0,-999.0,72,-99.99,,,-99.99,,2013-03-17 10:33:00,
2013-03-17 06:42:00,16.0,9.0,30.01,NW,310,9.0,-999.0,72,-99.99,,,-99.99,,2013-03-17 10:42:00,
2013-03-17 06:52:00,16.0,9.0,30.03,NW,310,7.0,-999.0,72,-99.99,,,-99.99,,2013-03-17 10:52:00,
2013-03-17 07:02:00,16.0,9.0,30.03,NW,310,7.0,-999.0,72,-99.99,,,-99.99,,2013-03-17 11:02:00,
2013-03-17 07:12:00,14.0,10.0,30.04,WNW,290,5.0,-999.0,85,-99.99,,,-99.99,,2013-03-17 11:12:00,
2013-03-17 07:22:00,12.0,9.0,30.04,WSW,250,3.0,-999.0,85,-99.99,,,-99.99,,2013-03-17 11:22:00,
2013-03-17 07:32:00,12.0,9.0,30.04,West,260,5.0,-999.0,85,-99.99,,,-99.99,,2013-03-17 11:32:00,
2013-03-17 07:42:00,10.0,7.0,30.04,WSW,250,5.0,-999.0,85,-99.99,,,-99.99,,2013-03-17 11:42:00,
2013-03-17 07:52:00,12.0,7.0,30.06,West,260,5.0,-999.0,78,-99.99,,,-99.99,,2013-03-17 11:52:00,
2013-03-17 08:02:00,12.0,7.0,30.06,West,260,5.0,-999.0,78,-99.99,,,-99.99,,2013-03-17 12:02:00,
2013-03-17 08:12:00,12.0,7.0,30.06,West,270,5.0,-999.0,78,-99.99,,,-99.99,,2013-03-17 12:12:00,
2013-03-17 08:22:00,14.0,7.0,30.07,West,270,6.0,-999.0,72,-99.99,,,-99.99,,2013-03-17 12:22:00,
2013-03-17 08:33:00,14.0,7.0,30.07,West,270,6.0,-999.0,72,-99.99,,,-99.99,,2013-03-17 12:33:00,
2013-03-17 08:43:00,14.0,7.0,30.08,WNW,290,5.0,-999.0,72,-99.99,,,-99.99,,2013-03-17 12:43:00,
2013-03-17 08:52:00,16.0,7.0,30.09,WNW,300,6.0,-999.0,67,-99.99,,,-99.99,,2013-03-17 12:52:00,
2013-03-17 09:02:00,16.0,7.0,30.09,WNW,300,6.0,-999.0,67,-99.99,,,-99.99,,2013-03-17 13:02:00,
2013-03-17 09:12:00,16.0,9.0,30.09,West,280,6.0,-999.0,72,-99.99,,,-99.99,,2013-03-17 13:12:00,
2013-03-17 09:22:00,16.0,7.0,30.10,West,280,7.0,-999.0,67,-99.99,,,-99.99,,2013-03-17 13:22:00,
2013-03-17 09:32:00,16.0,7.0,30.11,WNW,290,5.0,-999.0,67,-99.99,,,-99.99,,2013-03-17 13:32:00,
2013-03-17 09:42:00,16.0,7.0,30.11,West,280,8.0,-999.0,67,-99.99,,,-99.99,,2013-03-17 13:42:00,
2013-03-17 09:52:00,18.0,7.0,30.11,WNW,290,7.0,-999.0,62,-99.99,,,-99.99,,2013-03-17 13:52:00,
2013-03-17 10:02:00,18.0,7.0,30.11,WNW,290,7.0,-999.0,62,-99.99,,,-99.99,,2013-03-17 14:02:00,
2013-03-17 10:12:00,18.0,7.0,30.12,WNW,290,5.0,-999.0,62,-99.99,,,-99.99,,2013-03-17 14:12:00,
2013-03-17 10:22:00,18.0,7.0,30.13,NW,310,6.0,-999.0,62,-99.99,,,-99.99,,2013-03-17 14:22:00,
2013-03-17 10:32:00,18.0,7.0,30.13,NNW,330,8.0,-999.0,62,-99.99,,,-99.99,,2013-03-17 14:32:00,
2013-03-17 10:42:00,18.0,7.0,30.14,NW,310,5.0,-999.0,62,-99.99,,,-99.99,,2013-03-17 14:42:00,
2013-03-17 10:52:00,18.0,7.0,30.15,West,280,6.0,-999.0,62,-99.99,,,-99.99,,2013-03-17 14:52:00,
2013-03-17 11:02:00,18.0,7.0,30.15,West,280,6.0,-999.0,62,-99.99,,,-99.99,,2013-03-17 15:02:00,
2013-03-17 11:12:00,19.0,7.0,30.16,North,350,7.0,-999.0,57,-99.99,,,-99.99,,2013-03-17 15:12:00,
2013-03-17 11:23:00,19.0,7.0,30.16,NNW,330,9.0,-999.0,57,-99.99,,,-99.99,,2013-03-17 15:23:00,
2013-03-17 11:33:00,19.0,7.0,30.17,NNW,330,9.0,-999.0,57,-99.99,,,-99.99,,2013-03-17 15:33:00,
2013-03-17 11:43:00,19.0,7.0,30.17,NNW,330,8.0,-999.0,57,-99.99,,,-99.99,,2013-03-17 15:43:00,
2013-03-17 11:52:00,21.0,9.0,30.18,NNW,330,9.0,-999.0,57,-99.99,,,-99.99,,2013-03-17 15:52:00,
2013-03-17 12:03:00,21.0,9.0,30.18,NNW,330,9.0,-999.0,57,-99.99,,,-99.99,,2013-03-17 16:03:00,
2013-03-17 12:12:00,21.0,9.0,30.18,North,360,9.0,-999.0,57,-99.99,,,-99.99,,2013-03-17 16:12:00,
2013-03-17 12:23:00,21.0,9.0,30.19,NW,310,8.0,-999.0,57,-99.99,,,-99.99,,2013-03-17 16:23:00,
2013-03-17 12:33:00,21.0,7.0,30.19,North,350,10.0,-999.0,53,-99.99,,,-99.99,,2013-03-17 16:33:00,
2013-03-17 12:43:00,21.0,7.0,30.19,North,350,8.0,-999.0,53,-99.99,,,-99.99,,2013-03-17 16:43:00,
2013-03-17 12:52:00,21.0,7.0,30.19,North,360,8.0,-999.0,53,-99.99,,,-99.99,,2013-03-17 16:52:00,
2013-03-17 13:02:00,21.0,7.0,30.19,North,360,8.0,-999.0,53,-99.99,,,-99.99,,2013-03-17 17:02:00,
2013-03-17 13:12:00,21.0,7.0,30.20,WNW,300,10.0,16.0,53,-99.99,,,-99.99,,2013-03-17 17:12:00,
2013-03-17 13:22:00,21.0,7.0,30.20,North,350,10.0,-999.0,53,-99.99,,,-99.99,,2013-03-17 17:22:00,
2013-03-17 13:33:00,21.0,7.0,30.20,NNW,340,10.0,-999.0,53,-99.99,,,-99.99,,2013-03-17 17:33:00,
2013-03-17 13:42:00,21.0,7.0,30.20,North,350,10.0,-999.0,53,-99.99,,,-99.99,,2013-03-17 17:42:00,
2013-03-17 13:52:00,21.0,7.0,30.21,NNW,330,9.0,-999.0,53,-99.99,,,-99.99,,2013-03-17 17:52:00,
2013-03-17 14:02:00,21.0,7.0,30.21,NNW,330,9.0,-999.0,53,-99.99,,,-99.99,,2013-03-17 18:02:00,
2013-03-17 14:12:00,21.0,7.0,30.21,NW,320,12.0,16.0,53,-99.99,,,-99.99,,2013-03-17 18:12:00,
2013-03-17 14:22:00,23.0,7.0,30.21,NW,320,9.0,-999.0,49,-99.99,,,-99.99,,2013-03-17 18:22:00,
2013-03-17 14:32:00,23.0,7.0,30.21,NW,320,14.0,20.0,49,-99.99,,,-99.99,,2013-03-17 18:32:00,
2013-03-17 14:42:00,23.0,7.0,30.21,WNW,300,10.0,20.0,49,-99.99,,,-99.99,,2013-03-17 18:42:00,
2013-03-17 14:52:00,23.0,3.0,30.21,NW,310,14.0,18.0,41,-99.99,,,-99.99,,2013-03-17 18:52:00,
2013-03-17 15:02:00,23.0,3.0,30.21,NW,310,14.0,18.0,41,-99.99,,,-99.99,,2013-03-17 19:02:00,
2013-03-17 15:12:00,23.0,3.0,30.21,NNW,340,7.0,17.0,41,-99.99,,,-99.99,,2013-03-17 19:12:00,
2013-03-17 15:22:00,23.0,3.0,30.21,NW,310,6.0,-999.0,41,-99.99,,,-99.99,,2013-03-17 19:22:00,
2013-03-17 15:33:00,23.0,3.0,30.22,NNW,340,8.0,-999.0,41,-99.99,,,-99.99,,2013-03-17 19:33:00,
2013-03-17 15:42:00,23.0,7.0,30.22,NW,310,8.0,-999.0,49,-99.99,,,-99.99,,2013-03-17 19:42:00,
2013-03-17 15:53:00,23.0,5.0,30.22,NNW,330,8.0,-999.0,45,-99.99,,,-99.99,,2013-03-17 19:53:00,
2013-03-17 16:02:00,23.0,5.0,30.22,NNW,330,8.0,-999.0,45,-99.99,,,-99.99,,2013-03-17 20:02:00,
2013-03-17 16:12:00,23.0,7.0,30.22,NNW,340,6.0,-999.0,49,-99.99,,,-99.99,,2013-03-17 20:12:00,
2013-03-17 16:22:00,23.0,5.0,30.22,WNW,290,6.0,-999.0,45,-99.99,,,-99.99,,2013-03-17 20:22:00,
2013-03-17 16:33:00,25.0,7.0,30.22,NNW,340,7.0,-999.0,45,-99.99,,,-99.99,,2013-03-17 20:33:00,
2013-03-17 16:42:00,25.0,7.0,30.22,WNW,300,9.0,-999.0,45,-99.99,,,-99.99,,2013-03-17 20:42:00,
2013-03-17 16:52:00,25.0,5.0,30.23,NNW,330,7.0,-999.0,42,-99.99,,,-99.99,,2013-03-17 20:52:00,
2013-03-17 17:03:00,25.0,5.0,30.23,NNW,330,7.0,-999.0,42,-99.99,,,-99.99,,2013-03-17 21:03:00,
2013-03-17 17:12:00,25.0,5.0,30.23,WNW,300,10.0,-999.0,42,-99.99,,,-99.99,,2013-03-17 21:12:00,
2013-03-17 17:22:00,25.0,1.0,30.24,NW,320,12.0,-999.0,35,-99.99,,,-99.99,,2013-03-17 21:22:00,
2013-03-17 17:33:00,23.0,1.0,30.24,WNW,300,10.0,-999.0,38,-99.99,,,-99.99,,2013-03-17 21:33:00,
2013-03-17 17:43:00,25.0,1.0,30.24,NW,310,10.0,-999.0,35,-99.99,,,-99.99,,2013-03-17 21:43:00,
2013-03-17 17:52:00,23.0,1.0,30.24,WNW,300,10.0,16.0,38,-99.99,,,-99.99,,2013-03-17 21:52:00,
2013-03-17 18:03:00,23.0,1.0,30.24,WNW,300,10.0,16.0,38,-99.99,,,-99.99,,2013-03-17 22:03:00,
2013-03-17 18:12:00,23.0,1.0,30.25,NNW,340,8.0,-999.0,38,-99.99,,,-99.99,,2013-03-17 22:12:00,
2013-03-17 18:23:00,23.0,1.0,30.26,NNW,340,7.0,-999.0,38,-99.99,,,-99.99,,2013-03-17 22:23:00,
2013-03-17 18:33:00,23.0,1.0,30.26,NNW,340,9.0,-999.0,38,-99.99,,,-99.99,,2013-03-17 22:33:00,
2013-03-17 18:42:00,23.0,0.0,30.26,NNW,340,5.0,-999.0,35,-99.99,,,-99.99,,2013-03-17 22:42:00,
2013-03-17 18:52:00,21.0,1.0,30.27,North,350,6.0,-999.0,41,-99.99,,,-99.99,,2013-03-17 22:52:00,
2013-03-17 19:03:00,21.0,1.0,30.27,North,350,6.0,-999.0,41,-99.99,,,-99.99,,2013-03-17 23:03:00,
2013-03-17 19:12:00,21.0,0.0,30.27,North,360,7.0,-999.0,38,-99.99,,,-99.99,,2013-03-17 23:12:00,
2013-03-17 19:22:00,21.0,0.0,30.28,North,350,6.0,-999.0,38,-99.99,,,-99.99,,2013-03-17 23:22:00,
2013-03-17 19:33:00,19.0,0.0,30.28,North,360,3.0,-999.0,41,-99.99,,,-99.99,,2013-03-17 23:33:00,
2013-03-17 19:42:00,19.0,0.0,30.28,North,0,0.0,-999.0,41,-99.99,,,-99.99,,2013-03-17 23:42:00,
2013-03-17 19:52:00,19.0,0.0,30.29,North,350,3.0,-999.0,41,-99.99,,,-99.99,,2013-03-17 23:52:00,
2013-03-17 20:03:00,19.0,0.0,30.29,North,350,3.0,-999.0,41,-99.99,,,-99.99,,2013-03-18 00:03:00,
2013-03-17 20:12:00,18.0,1.0,30.30,North,0,0.0,-999.0,48,-99.99,,,-99.99,,2013-03-18 00:12:00,
2013-03-17 20:22:00,18.0,1.0,30.31,North,0,0.0,-999.0,48,-99.99,,,-99.99,,2013-03-18 00:22:00,
2013-03-17 20:33:00,16.0,1.0,30.31,North,0,0.0,-999.0,52,-99.99,,,-99.99,,2013-03-18 00:33:00,
2013-03-17 20:42:00,16.0,0.0,30.31,North,0,0.0,-999.0,48,-99.99,,,-99.99,,2013-03-18 00:42:00,
2013-03-17 20:52:00,16.0,0.0,30.31,North,0,0.0,-999.0,48,-99.99,,,-99.99,,2013-03-18 00:52:00,
2013-03-17 21:02:00,16.0,0.0,30.31,North,0,0.0,-999.0,48,-99.99,,,-99.99,,2013-03-18 01:02:00,
2013-03-17 21:12:00,14.0,3.0,30.32,North,0,0.0,-999.0,61,-99.99,,,-99.99,,2013-03-18 01:12:00,
2013-03-17 21:22:00,12.0,3.0,30.32,North,0,0.0,-999.0,66,-99.99,,,-99.99,,2013-03-18 01:22:00,
2013-03-17 21:32:00,12.0,3.0,30.32,North,0,0.0,-999.0,66,-99.99,,,-99.99,,2013-03-18 01:32:00,
2013-03-17 21:42:00,12.0,3.0,30.32,North,0,0.0,-999.0,66,-99.99,,,-99.99,,2013-03-18 01:42:00,
2013-03-17 21:52:00,12.0,3.0,30.33,North,0,0.0,-999.0,66,-99.99,,,-99.99,,2013-03-18 01:52:00,
2013-03-17 22:02:00,12.0,3.0,30.33,North,0,0.0,-999.0,66,-99.99,,,-99.99,,2013-03-18 02:02:00,
2013-03-17 22:12:00,10.0,3.0,30.34,South,170,5.0,-999.0,72,-99.99,,,-99.99,,2013-03-18 02:12:00,
2013-03-17 22:22:00,10.0,3.0,30.34,North,0,0.0,-999.0,72,-99.99,,,-99.99,,2013-03-18 02:22:00,
2013-03-17 22:32:00,10.0,3.0,30.34,South,170,3.0,-999.0,72,-99.99,,,-99.99,,2013-03-18 02:32:00,
2013-03-17 22:42:00,10.0,3.0,30.34,North,0,0.0,-999.0,72,-99.99,,,-99.99,,2013-03-18 02:42:00,
2013-03-17 22:52:00,9.0,3.0,30.34,North,0,0.0,-999.0,78,-99.99,,,-99.99,,2013-03-18 02:52:00,
2013-03-17 23:03:00,9.0,3.0,30.34,North,0,0.0,-999.0,78,-99.99,,,-99.99,,2013-03-18 03:03:00,
2013-03-17 23:11:00,9.0,3.0,30.34,North,0,0.0,-999.0,78,-99.99,,,-99.99,,2013-03-18 03:11:00,
2013-03-17 23:22:00,9.0,3.0,30.34,North,0,0.0,-999.0,78,-99.99,,,-99.99,,2013-03-18 03:22:00,
2013-03-17 23:33:00,9.0,3.0,30.34,North,0,0.0,-999.0,78,-99.99,,,-99.99,,2013-03-18 03:33:00,
2013-03-17 23:42:00,9.0,3.0,30.34,North,0,0.0,-999.0,78,-99.99,,,-99.99,,2013-03-18 03:42:00,
2013-03-17 23:53:00,9.0,3.0,30.35,North,0,0.0,-999.0,78,-99.99,,,-99.99,,2013-03-18 03:53:00,